CAPE
3571 3490 3149 2674 1874 1218 372 1556 2015 3431 4023 3874 2858 1768 1345 1152 576 538 1102 592 2605 2791 2094 2543 3136 3251 3462 3264 2786 2855 2969 2884 3002 3513 3728 3186 2252 2034 1978 1979 2412 2488 2599 2555 2311 2218 2320 2367 2066 2050 1652 1108 1351 1285 1612 1436 1512 1536 1540 1441 1480 1256 1092 1108 558 502 766 1160 1005 1007 1159 1092 950 792 518 441 401 723 762 1938 1853 1408 992 738 842
3692 4067 3993 3342 2304 2528 2774 3179 4256 4219 3664 2036 2063 1937 1556 1243 1342 1651 1463 3728 2048 2150 3342 3210 3332 3914 3327 3492 3559 3283 3443 4054 3581 4064 3992 3940 2904 2687 2467 1985 1952 2163 2178 2117 2038 2254 2696 2922 2832 2482 1688 1335 1192 1130 1175 1374 1316 1568 1872 1570 1179 1146 1078 1010 990 823 817 1010 1168 1176 915 1018 936 820 690 587 678 855 946 889 1007 1169 1243 1342 1152
4616 5018 5125 4705 4356 3661 3709 4240 4112 4064 2554 2292 1792 1746 1522 1212 1647 3129 2774 1325 3258 3325 3651 3594 4122 4334 4204 4031 4067 3816 3972 3580 3226 3498 3140 3311 2698 2350 2172 1990 2042 2081 2133 2126 2524 2745 2804 2596 2342 2316 1959 1277 1422 1392 1336 1317 1311 1415 1702 1637 1624 1352 1269 1051 1098 1096 1000 876 944 1081 1028 1187 1140 960 925 813 570 709 895 1695 1568 1369 1202 992 856
5116 5456 5284 4323 4310 4694 4768 4519 4457 3778 3172 2335 3152 2638 2008 1855 5260 5442 4946 3580 2879 3688 3781 3590 4174 3941 3084 2800 2881 3417 3238 3411 3253 3334 3059 3055 2529 2330 2211 2142 2074 2042 1982 1960 2059 1686 1424 1336 1462 1975 1764 1827 1531 1375 1668 1839 1666 1495 1431 1551 1415 1371 1321 1136 1607 1227 957 805 1051 1060 1139 1283 1368 1218 1223 1257 1069 1068 915 837 871 944 882 805 718
6331 6079 5792 5224 4648 4780 4417 4502 4355 4073 3163 3317 3190 3493 4823 4688 4966 4406 4628 4030 3846 3607 3080 3126 2995 2987 2276 2330 2440 3105 3030 3008 3046 2436 2674 2881 2829 2358 2321 2139 1982 1902 1804 1893 1778 1622 1614 1634 1494 1552 1356 1306 1424 1617 1652 1818 1650 1368 1327 1508 1552 1470 1404 1398 1931 1266 1083 956 849 943 1225 1387 1675 1829 1570 1248 1095 1008 918 961 1374 1342 1358 1102 841
6573 6593 6286 5558 4988 4078 4842 4617 4307 4420 4503 4074 3779 4625 4748 4377 3811 3942 3702 3577 3557 3058 3007 2768 2417 2214 2252 2215 1992 2496 2682 2621 2260 2468 2364 2256 2213 2260 2194 1628 1308 1312 1441 1305 1146 1224 1428 1278 1334 1263 1121 1155 1103 1052 1103 974 1226 1386 1396 1560 1716 1844 1974 1340 1885 1637 1292 1130 1315 1244 1161 1372 1303 1516 1662 1469 1191 952 1052 1395 1498 1604 1537 1194 854
6710 6359 5999 4924 4452 3889 4470 5308 5572 5250 5128 4536 4121 3958 3755 3522 3631 3498 3320 3280 3155 3402 2910 2170 1979 1798 2172 1908 1674 1691 1632 1416 1322 1160 1212 1230 1252 1256 1147 758 644 637 687 714 706 725 687 699 1017 1418 1225 1086 944 974 1083 1122 1114 985 895 927 1032 950 891 971 982 1211 992 908 919 928 875 1178 1089 1410 1711 1640 1565 1664 1591 1478 1294 1316 1392 1360 1524
6328 5882 5078 5010 5229 5042 5447 4644 4696 4738 4522 4144 3524 3192 3259 3292 3182 3186 2994 2781 2570 2094 2052 1925 1706 1475 1228 1153 1087 1118 1006 428 331 120 210 334 372 426 474 362 249 136 94 66 8 3 8 36 66 137 218 385 666 1112 1608 1097 997 1322 866 839 1005 912 854 897 1036 1064 1074 973 936 957 898 752 655 1244 1704 1622 1579 1599 1458 1224 1254 1354 1395 1652 1650
5647 5561 5938 5608 4978 4604 4262 3963 3874 3831 3618 3571 3368 3342 3133 2934 2650 2315 2199 1902 1630 1613 1501 1450 1386 1304 1078 976 1006 736 284 19 0 0 0 0 0 0 0 6 12 23 12 1 10 30 20 18 43 67 424 352 619 745 679 598 892 1100 827 837 837 931 810 947 991 830 754 723 712 663 634 586 551 923 1512 1422 924 869 1302 1372 1196 1361 1267 1265 1505
5998 5800 5147 4662 4380 4134 4034 3728 3601 3456 3242 3028 2763 2722 2504 2099 2229 2072 1688 1553 1212 1180 1271 1158 1022 950 782 714 533 104 0 0 0 0 0 0 0 0 0 0 0 0 4 14 20 41 34 2 44 171 134 335 480 541 464 650 700 795 889 832 731 999 777 714 958 1053 1094 956 898 884 699 649 676 605 982 1052 806 1223 1340 1669 1509 1808 1656 1688 1631
5197 4686 4297 4188 4140 3848 3496 3166 3114 2851 2729 2568 2293 2326 1968 1769 1380 1489 1199 1118 1117 1127 977 778 669 514 405 266 158 0 0 0 0 0 0 0 0 0 0 0 0 0 0 4 6 18 17 12 5 8 74 69 199 201 236 163 306 506 588 512 507 624 601 570 509 813 902 921 969 921 782 731 654 867 1217 1598 1315 1057 1060 1158 1478 1729 1717 1372 1257
4487 4134 3830 3677 3507 3250 2989 2743 2567 2482 2293 2010 1842 1685 1446 1372 1198 955 859 657 835 570 572 369 303 266 195 224 102 0 0 0 0 0 0 0 0 0 0 0 0 0 0 6 10 14 18 19 29 44 37 62 134 312 223 209 233 366 542 645 646 671 779 876 900 749 742 634 702 644 592 702 912 1352 1461 1368 1258 1274 1093 1043 1297 1361 1236 1391 1480
3832 3592 3368 3199 3077 2928 2738 2402 2271 2006 1702 1441 1275 1175 1056 898 756 576 443 441 456 397 334 220 274 244 216 169 62 3 2 0 0 0 0 0 0 0 0 0 0 1 1 3 11 24 37 49 35 35 22 28 37 85 94 115 138 242 386 646 729 781 800 696 933 1204 1112 978 930 842 840 930 891 1088 1210 1194 1466 1312 1245 1162 1424 1459 1423 1417 1500
3319 3167 2992 2790 2679 2390 2280 1862 1526 1340 1245 1198 1078 875 689 610 448 412 410 380 267 184 168 224 189 221 118 15 52 1 0 0 0 0 0 0 0 0 0 0 0 1 2 4 6 12 20 33 48 44 45 62 59 77 110 87 168 224 281 268 541 629 574 628 789 1003 870 702 692 926 1032 1040 1145 1274 1086 883 932 1500 1583 1396 1220 1283 1338 1422 1469
2810 2706 2551 2325 2053 1818 1526 1374 1180 1102 1066 888 638 514 467 354 249 242 259 184 234 235 183 158 61 20 5 1 1 0 0 0 0 0 0 0 0 0 0 0 0 2 4 7 12 15 18 21 30 35 39 45 38 42 39 31 26 34 109 225 353 512 468 598 636 972 880 737 986 938 994 1097 946 748 686 826 846 939 1463 1566 1407 1341 1276 1086 1138
2468 2127 1858 1648 1467 1322 1155 992 990 802 699 535 416 336 277 162 97 159 237 232 203 118 12 72 16 2 0 0 0 3 2 0 0 0 0 0 0 0 0 1 2 4 6 6 11 18 20 23 40 45 32 42 11 1 2 10 6 0 6 70 302 474 208 405 294 384 596 807 606 543 649 902 906 1114 960 1047 1250 1568 1396 1289 1132 1152 1219 1184 1095
1677 1465 1251 1203 1132 1101 980 830 699 594 439 339 184 149 130 67 88 157 161 163 26 2 4 0 10 3 0 0 5 6 11 5 1 0 0 0 0 0 2 3 3 2 4 6 10 12 11 17 26 38 30 34 2 0 1 7 10 8 3 1 25 196 160 167 220 179 306 357 428 412 539 619 604 512 550 601 978 1162 1242 954 1105 1040 785 954 1000
1239 1132 1014 932 884 840 753 601 446 307 226 126 68 83 78 48 35 23 39 11 0 0 3 3 1 6 2 4 12 9 12 11 6 0 0 0 0 1 2 1 2 4 1 1 0 0 0 2 18 31 32 17 0 0 0 2 11 16 8 0 0 22 186 64 220 222 284 236 269 455 691 397 338 604 581 646 744 812 1030 838 767 953 906 836 774
1101 1004 836 708 650 588 523 431 250 150 54 24 30 26 16 10 4 8 1 0 0 0 0 2 10 12 16 12 10 20 20 18 2 0 0 0 0 0 0 1 1 1 3 1 1 1 0 0 0 31 25 2 0 0 0 0 2 6 8 3 0 5 2 0 102 303 526 345 278 494 820 622 600 730 748 666 735 814 834 738 758 760 717 696 664
833 690 600 563 452 390 236 179 128 70 20 10 12 6 5 7 8 9 4 2 0 4 2 5 10 10 24 22 18 25 18 16 11 2 0 0 1 0 0 0 0 0 0 0 0 0 2 4 14 32 1 0 0 0 1 0 0 0 4 7 11 2 0 0 47 135 117 373 530 601 544 326 640 604 464 432 388 640 673 646 537 525 617 656 659
691 557 439 256 176 138 145 61 30 32 17 10 6 6 7 6 10 5 12 16 15 15 9 10 11 21 24 19 19 20 15 16 9 0 0 0 0 0 0 0 0 3 5 2 0 2 6 14 14 21 0 0 0 0 0 0 0 0 14 7 0 0 0 0 0 28 121 302 368 368 917 685 594 829 720 622 435 467 539 609 673 573 444 488 411
402 358 232 110 72 50 30 30 4 4 6 6 6 2 4 6 1 6 2 9 10 11 6 10 12 16 20 16 16 17 15 9 0 0 0 0 0 0 0 0 0 1 4 2 16 13 20 19 9 16 0 0 0 0 0 0 0 7 0 0 0 0 0 0 0 38 127 68 234 216 130 308 158 224 254 388 366 556 686 638 490 523 598 544 308
282 193 90 5 1 5 22 7 3 1 1 3 1 2 8 5 5 1 3 6 5 4 2 5 4 8 11 12 8 7 10 8 0 0 0 0 0 0 0 0 0 2 4 20 23 22 12 6 5 4 1 0 0 0 0 0 0 1 0 0 0 0 0 0 2 9 76 110 135 66 38 62 112 120 140 151 127 298 396 782 689 549 374 278 415
88 0 0 0 6 8 3 2 1 3 2 3 5 2 0 0 1 2 3 3 4 0 5 0 0 0 2 2 5 3 0 0 0 0 0 0 0 0 0 0 1 2 3 10 15 14 4 1 2 2 6 5 5 6 5 4 2 0 0 0 0 0 0 0 8 34 29 4 0 1 1 6 30 36 48 59 60 31 25 185 394 512 252 47 83
0 0 2 3 4 3 5 3 3 4 3 3 3 3 1 2 1 0 0 0 4 21 0 0 0 0 0 0 0 0 0 0 0 0 0 0 0 0 0 0 1 1 2 3 7 4 1 1 0 1 0 1 4 8 8 8 8 8 8 4 17 18 27 20 9 4 4 2 1 0 4 4 2 1 3 2 1 0 1 21 79 236 116 0 0
2 6 6 6 4 2 1 2 3 0 2 2 3 3 1 1 0 0 0 0 0 0 0 0 0 0 0 0 0 0 0 0 0 0 0 0 0 0 0 0 0 0 4 6 0 4 10 1 0 0 0 7 11 12 20 30 10 6 7 7 4 2 2 2 3 1 0 0 0 0 2 2 2 0 8 8 4 19 27 26 22 27 20 2 2
6 6 7 3 0 1 2 3 2 0 0 0 0 0 0 0 0 0 0 0 0 0 0 0 0 0 0 0 0 0 0 0 0 0 0 0 0 0 0 0 0 0 0 2 1 0 21 14 7 2 6 7 13 16 13 14 11 5 0 9 8 0 0 3 3 1 3 5 6 12 15 6 3 0 0 0 0 2 8 13 15 12 2 1 0
6 5 2 2 8 10 6 2 0 0 0 0 0 0 0 0 0 0 0 0 0 0 0 0 0 0 0 0 0 0 0 0 0 0 0 0 0 0 0 0 0 0 0 0 2 9 14 25 19 17 18 16 13 4 1 2 7 14 25 38 42 33 26 26 28 31 20 12 12 14 17 16 6 4 1 0 0 0 0 0 0 4 6 7 0
8 6 4 10 10 12 12 20 13 1 0 0 0 0 0 0 0 0 0 0 0 0 0 0 0 0 0 0 0 0 0 0 0 0 0 0 0 0 0 0 0 0 0 7 10 17 34 45 73 33 33 28 23 26 27 36 38 37 44 50 44 25 14 14 18 24 29 28 18 29 22 19 10 12 5 2 2 1 0 0 0 0 3 0 0
7 5 5 13 12 2 0 0 0 0 0 0 0 0 0 0 0 0 0 0 0 0 0 0 0 0 0 0 0 0 0 0 0 0 0 0 0 0 0 0 0 0 0 22 108 144 12 8 11 10 34 31 12 16 20 35 26 11 4 2 6 8 18 21 27 35 46 185 150 36 62 41 23 28 18 7 2 0 0 0 0 0 0 0 2
11 10 19 19 12 0 0 0 0 0 0 0 0 0 0 0 0 0 0 0 0 0 0 0 0 0 0 0 0 0 0 0 0 0 0 0 0 0 0 0 0 0 0 0 32 13 2 0 0 0 2 7 12 9 5 3 4 2 1 1 1 4 1 5 20 16 13 6 1 0 0 4 24 34 27 20 10 6 7 11 5 0 0 0 3
15 16 23 22 14 2 0 0 0 0 0 0 0 0 0 0 0 0 0 0 0 0 0 0 0 0 0 0 0 0 0 0 0 0 0 0 0 0 0 0 0 0 0 0 7 4 3 5 4 2 0 0 0 3 4 5 5 6 4 0 0 2 6 11 14 4 3 10 8 4 2 0 0 0 0 1 12 19 30 20 2 0 0 0 0
22 22 22 22 25 12 0 0 0 0 0 0 0 0 0 0 0 0 0 0 0 0 0 0 0 0 0 0 0 0 0 0 0 0 0 0 0 0 0 0 0 0 0 0 0 0 0 2 5 3 3 0 0 0 0 0 0 0 2 4 6 13 19 17 19 11 4 2 0 6 10 8 4 0 0 0 0 0 0 6 18 25 11 0 0
22 20 23 23 23 25 8 0 0 0 0 0 0 0 0 0 0 0 0 0 0 0 0 0 0 0 0 0 0 0 0 0 0 0 0 0 0 0 0 0 0 0 0 0 0 0 0 0 0 2 0 1 0 0 0 0 0 0 0 0 0 3 7 9 2 1 0 1 0 0 0 0 1 7 5 0 0 0 0 0 3 9 4 0 0
20 16 17 19 25 24 10 0 0 0 5 19 20 3 2 0 0 0 0 0 0 0 0 0 0 0 0 0 0 0 0 0 0 0 0 0 0 0 0 0 0 0 0 0 0 0 0 0 0 0 1 0 0 0 0 0 0 0 0 0 0 0 0 0 2 17 3 0 0 0 0 0 0 0 0 2 2 0 0 0 0 0 0 6 6
7 16 18 13 17 17 13 19 6 20 2 0 0 0 0 0 0 0 0 0 0 0 0 0 0 0 0 0 0 0 0 0 0 0 0 0 0 0 0 0 0 0 0 0 0 0 0 0 0 0 0 0 0 0 0 0 0 0 0 0 0 0 0 0 0 0 0 0 0 0 0 0 0 0 0 0 0 0 2 0 0 0 0 0 0
4 8 13 16 19 18 21 16 10 10 0 1 0 0 0 0 0 0 0 0 0 0 0 0 0 0 0 0 0 0 0 0 0 0 0 0 0 0 0 0 0 0 0 0 0 0 0 0 0 0 0 0 0 0 0 0 0 2 4 1 1 1 0 0 3 8 0 0 0 0 0 0 0 0 0 0 0 0 0 0 1 0 0 1 4
15 14 13 15 25 37 24 15 3 2 0 0 2 0 0 0 0 0 0 0 0 0 0 0 0 0 0 0 0 0 0 0 0 0 0 0 0 0 0 0 0 0 0 0 0 0 0 0 0 0 0 0 0 0 0 0 0 0 0 1 0 0 2 3 1 0 1 0 0 0 0 0 0 0 0 0 0 1 0 0 0 0 4 2 0
22 24 15 12 21 16 16 7 0 0 0 0 0 0 0 0 0 0 0 0 0 0 0 0 0 0 0 0 0 0 0 0 0 0 0 0 0 0 0 0 0 0 0 0 0 0 0 0 0 0 0 0 0 0 0 0 0 0 0 0 0 0 0 0 4 10 0 0 0 0 0 0 0 1 0 0 0 0 0 0 0 0 0 0 0
15 14 7 2 3 2 8 2 0 0 0 0 0 0 0 0 0 0 0 0 0 0 0 0 0 0 0 0 0 0 0 0 0 0 0 0 0 0 0 0 0 0 0 0 0 0 0 0 0 0 0 0 0 0 0 0 0 0 0 0 0 0 0 0 0 0 2 0 0 0 0 0 0 0 0 0 0 0 0 0 0 0 0 0 0
4 8 7 3 4 2 0 0 0 0 0 0 0 0 0 0 0 0 0 0 0 0 0 0 0 0 0 0 0 0 0 0 0 0 0 0 0 0 0 0 0 0 0 0 0 0 0 0 0 0 0 0 0 0 0 0 0 0 0 0 0 0 0 0 0 0 0 0 0 0 0 0 0 0 0 0 0 0 0 0 0 0 0 0 0
2 4 2 2 2 0 0 0 1 6 0 0 0 0 0 0 0 0 0 0 0 0 0 0 0 0 0 0 0 0 0 0 0 0 0 0 0 0 0 0 0 0 0 0 0 0 0 0 0 0 0 0 0 0 0 0 0 0 0 0 0 0 0 0 0 0 0 0 0 0 0 0 0 0 0 0 0 0 0 0 0 0 0 0 0
10 3 0 0 0 0 1 9 12 4 0 0 0 0 0 0 0 0 0 0 0 0 0 0 0 0 0 0 0 0 0 0 0 0 0 0 0 0 0 0 0 0 0 0 0 0 0 0 0 0 0 0 0 0 0 0 0 0 0 0 0 0 0 0 0 0 0 0 0 0 0 0 0 0 0 0 0 0 0 0 0 0 0 0 0
2 0 2 0 0 8 11 6 1 2 0 0 0 0 0 0 0 0 0 0 0 0 0 0 0 0 0 0 0 0 0 0 0 0 0 0 0 0 0 0 0 0 0 0 0 0 0 0 0 0 0 0 0 0 0 0 0 0 0 0 0 0 0 0 0 0 0 0 0 0 0 0 0 0 0 0 0 0 0 0 0 0 0 0 0
3 2 0 0 5 18 16 15 5 2 0 0 0 0 0 0 0 0 0 0 0 0 0 0 0 0 0 0 0 0 0 0 0 0 0 0 0 0 0 0 0 0 0 0 0 0 0 0 0 0 0 0 0 0 0 0 0 0 0 0 0 0 0 0 0 0 0 0 0 0 0 0 0 0 0 0 0 0 0 0 0 0 0 0 0
2 3 0 0 3 4 3 0 8 1 0 0 0 0 0 0 0 0 0 0 0 0 0 0 0 0 0 0 0 0 0 0 0 0 0 0 0 0 0 0 0 0 0 0 0 0 0 0 0 0 0 0 0 0 0 0 0 0 0 0 0 0 0 0 0 0 0 0 0 0 0 0 0 0 0 0 0 0 0 0 0 0 0 0 0
10 6 1 3 2 1 1 11 0 0 0 0 0 0 0 0 0 0 0 0 0 0 0 0 0 0 0 0 0 0 0 0 0 0 0 0 0 0 0 0 0 0 0 0 0 0 0 0 0 0 0 0 0 0 0 0 0 0 0 0 0 0 0 0 0 0 0 0 0 0 0 0 0 0 0 0 0 0 0 0 0 0 0 0 0
5 6 3 4 1 0 0 0 0 0 0 0 0 0 0 0 0 0 0 0 0 0 0 0 0 0 0 0 0 0 0 0 0 0 0 0 0 0 0 0 0 0 0 0 0 0 0 0 0 0 0 0 0 0 0 0 0 0 0 0 0 0 0 0 0 0 0 0 0 0 0 0 0 0 0 0 0 0 0 0 0 0 0 0 0
1 2 2 0 0 0 0 0 0 0 0 0 0 0 0 0 0 0 0 0 0 0 0 0 0 0 0 0 0 0 0 0 0 0 0 0 0 0 0 0 0 0 0 0 0 0 0 0 0 0 0 0 0 0 0 0 0 0 0 0 0 0 0 0 0 0 0 0 0 0 0 0 0 0 0 0 0 0 0 0 0 0 0 0 0
4 1 0 0 2 0 0 0 0 0 0 0 0 0 0 0 0 0 0 0 0 0 0 0 0 0 0 0 0 0 0 0 0 0 0 0 0 0 0 0 0 0 0 0 0 0 0 0 0 0 0 0 0 0 0 0 0 0 0 0 0 0 0 0 0 0 0 0 0 0 0 0 0 0 0 0 0 0 0 0 0 0 0 0 0
1 0 0 0 0 0 0 0 0 0 0 0 0 0 0 0 0 0 0 0 0 0 0 0 0 0 0 0 0 0 0 0 0 0 0 0 0 0 0 0 0 0 0 0 0 0 0 0 0 0 0 0 0 0 0 0 0 0 0 0 0 0 0 0 0 0 0 0 0 0 0 0 0 0 0 0 0 0 0 0 0 0 0 0 0
Wind_Speed
9 10 9 10 10 10 14 15 16 15 21 24 24 25 23 22 22 22 23 26 28 25 25 28 27 27 30 31 33 33 33 30 29 29 29 35 38 38 38 37 35 32 33 31 34 34 36 37 37 36 47 51 40 35 37 36 37 39 39 39 39 40 42 46 40 31 30 33 34 32 33 36 32 30 29 30 26 27 29 30 30 32 33 33 32
10 11 11 10 12 11 9 7 11 17 22 25 28 27 25 23 22 22 23 29 31 32 32 31 28 29 29 32 31 31 32 32 30 31 32 38 37 38 41 40 34 31 33 31 32 36 37 38 39 38 51 52 47 40 38 40 39 39 42 42 43 38 39 44 41 38 30 32 34 34 31 33 31 32 32 31 30 30 29 26 27 29 30 32 31
12 12 12 12 13 12 13 15 14 15 20 24 27 28 28 26 25 23 23 25 29 31 32 31 31 30 30 31 32 31 32 31 29 32 34 38 39 40 42 45 42 37 37 37 36 39 40 39 37 38 46 50 49 47 44 41 42 41 44 45 45 42 37 38 41 41 38 34 33 35 36 36 35 32 31 31 31 30 28 29 30 30 29 29 29
13 13 14 15 15 14 16 16 18 19 20 22 25 26 24 27 29 30 30 31 30 33 32 32 33 34 32 31 31 33 34 35 34 35 36 37 37 37 39 40 40 39 40 40 41 42 41 39 37 41 43 46 46 44 44 45 45 45 43 42 43 44 42 43 41 42 42 39 38 35 38 38 35 31 32 33 32 32 32 29 28 28 27 26 26
12 12 14 13 14 16 18 19 20 20 21 23 26 31 32 33 35 36 36 37 35 34 36 35 34 35 34 33 32 34 37 37 37 35 35 37 36 37 38 40 41 43 42 41 42 42 42 45 43 43 44 42 41 43 44 44 44 45 44 43 44 45 43 43 46 48 45 44 39 39 37 35 33 33 35 33 32 30 31 29 29 29 28 26 26
12 13 14 15 15 17 20 21 21 21 23 26 27 31 34 37 38 40 41 40 39 39 37 35 31 31 33 33 34 36 37 41 40 37 36 36 38 40 42 42 43 44 44 43 43 43 44 44 44 45 44 42 44 43 42 42 43 45 43 43 45 47 45 46 48 47 48 45 42 38 38 33 36 33 34 32 29 28 29 32 33 32 31 27 26
13 14 16 16 17 17 19 20 22 24 25 27 30 34 34 37 39 38 38 38 38 38 37 37 37 34 37 38 38 40 41 42 41 39 39 40 41 42 45 47 47 46 45 44 42 43 43 43 45 47 49 49 46 45 44 44 47 42 41 42 43 43 43 43 41 42 46 48 45 41 38 34 35 31 31 29 28 30 31 32 31 32 31 28 27
15 16 16 17 18 18 21 21 22 22 27 29 31 33 35 38 39 39 40 37 39 39 37 36 37 39 39 40 41 42 46 47 43 43 43 43 43 43 42 42 42 43 nan nan nan nan nan nan nan 43 44 46 47 48 48 48 49 46 45 43 43 39 39 38 41 46 46 42 41 38 38 35 32 30 29 31 32 31 31 31 29 30 30 31 30
17 17 18 20 20 20 20 22 25 28 29 31 33 35 37 39 42 41 40 39 38 38 38 38 39 40 41 41 42 46 50 nan nan nan nan nan nan nan nan nan nan nan nan nan nan nan nan nan nan nan 45 41 38 40 41 42 46 46 45 45 43 40 40 42 43 43 43 41 38 37 36 33 30 27 27 30 32 27 30 30 30 30 30 30 33
18 18 19 20 20 21 23 25 28 29 31 33 35 36 38 39 40 41 39 39 38 37 37 39 40 41 41 44 44 51 nan nan nan nan nan nan nan nan nan nan nan nan nan nan nan nan nan nan nan 36 36 37 38 39 40 41 43 43 43 43 42 41 41 39 39 39 39 37 37 39 37 30 32 29 29 32 33 32 32 33 33 35 35 34 33
19 20 20 20 20 23 25 27 29 31 32 33 37 39 38 39 39 39 39 38 38 38 40 40 41 41 42 44 45 nan nan nan nan nan nan nan nan nan nan nan nan nan nan nan nan nan nan nan nan nan nan nan 41 38 38 37 38 39 41 41 42 42 39 35 33 34 33 32 33 33 32 31 30 32 34 36 36 36 33 33 32 31 32 33 32
21 21 21 22 24 25 26 29 31 33 34 34 34 37 41 40 40 38 37 37 38 39 41 41 41 41 42 40 44 nan nan nan nan nan nan nan nan nan nan nan nan nan nan nan nan nan nan nan nan nan nan nan 36 37 36 37 35 32 33 34 34 33 32 34 32 30 30 28 28 28 27 28 31 33 35 34 34 33 30 31 31 30 30 29 31
20 20 22 23 25 27 30 31 32 34 35 37 39 41 41 40 39 37 37 38 39 40 40 40 41 40 39 37 nan nan nan nan nan nan nan nan nan nan nan nan nan nan nan nan nan nan nan nan nan nan nan nan nan nan nan 32 29 26 25 27 29 30 29 27 27 26 26 24 23 24 25 26 27 29 32 31 33 31 30 30 29 28 27 26 27
20 21 22 23 24 27 28 32 34 35 38 40 41 41 41 39 39 37 38 39 41 40 40 39 38 37 37 nan nan nan nan nan nan nan nan nan nan nan nan nan nan nan nan nan nan nan nan nan nan nan nan nan nan nan 27 nan 28 28 28 27 26 24 24 22 20 18 20 20 18 18 22 24 25 29 31 29 26 28 29 28 29 27 26 25 28
21 22 24 25 27 29 32 34 36 38 39 41 42 41 40 39 39 38 39 40 40 40 38 36 nan nan nan nan nan nan nan nan nan nan nan nan nan nan nan nan nan nan nan nan nan nan nan nan nan nan nan nan nan nan nan nan nan nan 19 16 12 14 15 15 14 15 15 15 15 15 20 25 27 27 27 28 23 21 25 29 30 28 26 24 23
24 26 27 29 30 32 34 36 38 39 41 42 42 41 40 39 nan 38 40 41 40 37 nan nan nan nan nan nan nan nan nan nan nan nan nan nan nan nan nan nan nan nan nan nan nan nan nan nan nan nan nan nan nan nan nan nan nan nan nan nan 5 8 8 9 11 8 8 11 17 19 20 22 24 23 23 23 23 23 24 26 28 27 25 24 23
28 29 31 32 33 35 37 39 40 41 43 44 42 41 39 nan nan 38 39 40 nan nan nan nan nan nan nan nan nan nan nan nan nan nan nan nan nan nan nan nan nan nan nan nan nan nan nan nan nan nan nan nan nan nan nan nan nan nan nan nan nan 6 7 8 9 18 20 19 16 14 13 20 22 21 21 21 20 23 22 22 24 25 22 22 24
32 32 34 35 36 37 39 40 42 43 44 44 nan nan nan nan nan nan nan nan nan nan nan nan nan nan nan nan nan nan nan nan nan nan nan nan nan nan nan nan nan nan nan nan nan nan nan nan nan nan nan nan nan nan nan nan nan nan nan nan nan nan 13 nan 12 12 14 17 12 10 11 20 16 17 18 17 17 20 21 20 22 23 23 24 23
34 35 37 38 39 40 41 43 44 45 nan nan nan nan nan nan nan nan nan nan nan nan nan nan nan nan nan nan nan nan nan nan nan nan nan nan nan nan nan nan nan nan nan nan nan nan nan nan nan nan nan nan nan nan nan nan nan nan nan nan nan nan nan nan 13 13 16 16 13 14 16 18 17 18 19 20 21 18 19 18 20 21 22 24 25
37 38 39 41 42 43 44 45 47 nan nan nan nan nan nan nan nan nan nan nan nan nan nan nan nan nan nan nan nan nan nan nan nan nan nan nan nan nan nan nan nan nan nan nan nan nan nan nan nan nan nan nan nan nan nan nan nan nan nan nan nan nan nan nan nan 11 12 13 13 15 15 15 15 18 20 21 21 20 19 18 20 21 20 22 22
40 41 41 43 44 46 46 nan nan nan nan nan nan nan nan nan nan nan nan nan nan nan nan nan nan nan nan nan nan nan nan nan nan nan nan nan nan nan nan nan nan nan nan nan nan nan nan nan nan nan nan nan nan nan nan nan nan nan nan nan nan nan nan nan nan nan 6 8 13 12 15 16 17 19 18 20 18 18 17 17 18 19 19 20 22
43 44 44 45 nan nan nan nan nan nan nan nan nan nan nan nan nan nan nan nan nan nan nan nan nan nan nan nan nan nan nan nan nan nan nan nan nan nan nan nan nan nan nan nan nan nan nan nan nan nan nan nan nan nan nan nan nan nan nan nan nan nan nan nan nan nan 6 nan 9 14 15 16 17 18 19 19 19 17 17 18 19 19 19 18 19
47 47 nan nan nan nan nan nan nan nan nan nan nan nan nan nan nan nan nan nan nan nan nan nan nan nan nan nan nan nan nan nan nan nan nan nan nan nan nan nan nan nan nan nan nan nan nan nan nan nan nan nan nan nan nan nan nan nan nan nan nan nan nan nan nan nan nan 7 13 nan nan nan 18 19 19 19 18 17 16 17 17 17 16 16 18
nan nan nan nan nan nan nan nan nan nan nan nan nan nan nan nan nan nan nan nan nan nan nan nan nan nan nan nan nan nan nan nan nan nan nan nan nan nan nan nan nan nan nan nan nan nan nan nan nan nan nan nan nan nan nan nan nan nan nan nan nan nan nan nan nan nan nan nan nan nan nan nan nan nan nan nan nan nan nan 17 18 19 22 nan nan
nan nan nan nan nan nan nan nan nan nan nan nan nan nan nan nan nan nan nan nan nan nan nan nan nan nan nan nan nan nan nan nan nan nan nan nan nan nan nan nan nan nan nan nan nan nan nan nan nan nan nan nan nan nan nan nan nan nan nan nan nan nan nan nan nan nan nan nan nan nan nan nan nan nan nan nan nan nan nan nan nan 17 25 nan nan
nan nan nan nan nan nan nan nan nan nan nan nan nan nan nan nan nan nan nan nan nan nan nan nan nan nan nan nan nan nan nan nan nan nan nan nan nan nan nan nan nan nan nan nan nan nan nan nan nan nan nan nan nan nan nan nan nan nan nan nan nan nan nan nan nan nan nan nan nan nan nan nan nan nan nan nan nan nan nan nan nan nan nan nan nan
nan nan nan nan nan nan nan nan nan nan nan nan nan nan nan nan nan nan nan nan nan nan nan nan nan nan nan nan nan nan nan nan nan nan nan nan nan nan nan nan nan nan nan nan nan nan nan nan nan nan nan nan nan nan nan nan nan nan nan nan nan nan nan nan nan nan nan nan nan nan nan nan nan nan nan nan nan nan nan nan nan nan nan nan nan
nan nan nan nan nan nan nan nan nan nan nan nan nan nan nan nan nan nan nan nan nan nan nan nan nan nan nan nan nan nan nan nan nan nan nan nan nan nan nan nan nan nan nan nan nan nan nan nan nan nan nan nan nan nan nan nan nan nan nan nan nan nan nan nan nan nan nan nan nan nan nan nan nan nan nan nan nan nan nan nan nan nan nan nan nan
nan nan nan nan nan nan nan nan nan nan nan nan nan nan nan nan nan nan nan nan nan nan nan nan nan nan nan nan nan nan nan nan nan nan nan nan nan nan nan nan nan nan nan nan nan nan nan nan nan nan nan nan nan nan nan nan nan nan nan nan nan nan nan nan nan nan nan nan nan nan nan nan nan nan nan nan nan nan nan nan nan nan nan nan nan
nan nan nan nan nan nan nan nan nan nan nan nan nan nan nan nan nan nan nan nan nan nan nan nan nan nan nan nan nan nan nan nan nan nan nan nan nan nan nan nan nan nan nan nan 19 15 nan nan nan nan nan nan nan nan nan nan nan nan nan nan nan nan nan nan nan nan nan 20 20 nan nan nan nan nan nan nan nan nan nan nan nan nan nan nan nan
nan nan nan nan nan nan nan nan nan nan nan nan nan nan nan nan nan nan nan nan nan nan nan nan nan nan nan nan nan nan nan nan nan nan nan nan nan nan nan nan nan nan nan nan nan nan nan nan nan nan nan nan nan nan nan nan nan nan nan nan nan nan nan nan nan nan nan nan nan nan nan nan nan nan nan nan nan nan nan nan nan nan nan nan nan
nan nan nan nan nan nan nan nan nan nan nan nan nan nan nan nan nan nan nan nan nan nan nan nan nan nan nan nan nan nan nan nan nan nan nan nan nan nan nan nan nan nan nan nan nan nan nan nan nan nan nan nan nan nan nan nan nan nan nan nan nan nan nan nan nan nan nan nan nan nan nan nan nan nan nan nan nan nan nan nan nan nan nan nan nan
nan nan nan nan nan nan nan nan nan nan nan nan nan nan nan nan nan nan nan nan nan nan nan nan nan nan nan nan nan nan nan nan nan nan nan nan nan nan nan nan nan nan nan nan nan nan nan nan nan nan nan nan nan nan nan nan nan nan nan nan nan nan nan nan nan nan nan nan nan nan nan nan nan nan nan nan nan nan nan nan nan nan nan nan nan
nan nan nan nan nan nan nan nan nan nan nan nan nan nan nan nan nan nan nan nan nan nan nan nan nan nan nan nan nan nan nan nan nan nan nan nan nan nan nan nan nan nan nan nan nan nan nan nan nan nan nan nan nan nan nan nan nan nan nan nan nan nan nan nan nan nan nan nan nan nan nan nan nan nan nan nan nan nan nan nan nan nan nan nan nan
nan nan nan nan nan nan nan nan nan nan nan nan nan nan nan nan nan nan nan nan nan nan nan nan nan nan nan nan nan nan nan nan nan nan nan nan nan nan nan nan nan nan nan nan nan nan nan nan nan nan nan nan nan nan nan nan nan nan nan nan nan nan nan nan nan nan nan nan nan nan nan nan nan nan nan nan nan nan nan nan nan nan nan nan nan
nan nan nan nan nan nan nan nan nan nan nan nan nan nan nan nan nan nan nan nan nan nan nan nan nan nan nan nan nan nan nan nan nan nan nan nan nan nan nan nan nan nan nan nan nan nan nan nan nan nan nan nan nan nan nan nan nan nan nan nan nan nan nan nan nan nan nan nan nan nan nan nan nan nan nan nan nan nan nan nan nan nan nan nan nan
nan nan nan nan nan nan nan nan nan nan nan nan nan nan nan nan nan nan nan nan nan nan nan nan nan nan nan nan nan nan nan nan nan nan nan nan nan nan nan nan nan nan nan nan nan nan nan nan nan nan nan nan nan nan nan nan nan nan nan nan nan nan nan nan nan nan nan nan nan nan nan nan nan nan nan nan nan nan nan nan nan nan nan nan nan
nan nan nan nan nan nan nan nan nan nan nan nan nan nan nan nan nan nan nan nan nan nan nan nan nan nan nan nan nan nan nan nan nan nan nan nan nan nan nan nan nan nan nan nan nan nan nan nan nan nan nan nan nan nan nan nan nan nan nan nan nan nan nan nan nan nan nan nan nan nan nan nan nan nan nan nan nan nan nan nan nan nan nan nan nan
nan nan nan nan nan nan nan nan nan nan nan nan nan nan nan nan nan nan nan nan nan nan nan nan nan nan nan nan nan nan nan nan nan nan nan nan nan nan nan nan nan nan nan nan nan nan nan nan nan nan nan nan nan nan nan nan nan nan nan nan nan nan nan nan nan nan nan nan nan nan nan nan nan nan nan nan nan nan nan nan nan nan nan nan nan
nan nan nan nan nan nan nan nan nan nan nan nan nan nan nan nan nan nan nan nan nan nan nan nan nan nan nan nan nan nan nan nan nan nan nan nan nan nan nan nan nan nan nan nan nan nan nan nan nan nan nan nan nan nan nan nan nan nan nan nan nan nan nan nan nan nan nan nan nan nan nan nan nan nan nan nan nan nan nan nan nan nan nan nan nan
nan nan nan nan nan nan nan nan nan nan nan nan nan nan nan nan nan nan nan nan nan nan nan nan nan nan nan nan nan nan nan nan nan nan nan nan nan nan nan nan nan nan nan nan nan nan nan nan nan nan nan nan nan nan nan nan nan nan nan nan nan nan nan nan nan nan nan nan nan nan nan nan nan nan nan nan nan nan nan nan nan nan nan nan nan
nan nan nan nan nan nan nan nan nan nan nan nan nan nan nan nan nan nan nan nan nan nan nan nan nan nan nan nan nan nan nan nan nan nan nan nan nan nan nan nan nan nan nan nan nan nan nan nan nan nan nan nan nan nan nan nan nan nan nan nan nan nan nan nan nan nan nan nan nan nan nan nan nan nan nan nan nan nan nan nan nan nan nan nan nan
nan nan nan nan nan nan nan nan nan nan nan nan nan nan nan nan nan nan nan nan nan nan nan nan nan nan nan nan nan nan nan nan nan nan nan nan nan nan nan nan nan nan nan nan nan nan nan nan nan nan nan nan nan nan nan nan nan nan nan nan nan nan nan nan nan nan nan nan nan nan nan nan nan nan nan nan nan nan nan nan nan nan nan nan nan
nan nan nan nan nan nan nan nan nan nan nan nan nan nan nan nan nan nan nan nan nan nan nan nan nan nan nan nan nan nan nan nan nan nan nan nan nan nan nan nan nan nan nan nan nan nan nan nan nan nan nan nan nan nan nan nan nan nan nan nan nan nan nan nan nan nan nan nan nan nan nan nan nan nan nan nan nan nan nan nan nan nan nan nan nan
nan nan nan nan nan nan nan nan nan nan nan nan nan nan nan nan nan nan nan nan nan nan nan nan nan nan nan nan nan nan nan nan nan nan nan nan nan nan nan nan nan nan nan nan nan nan nan nan nan nan nan nan nan nan nan nan nan nan nan nan nan nan nan nan nan nan nan nan nan nan nan nan nan nan nan nan nan nan nan nan nan nan nan nan nan
nan nan nan nan nan nan nan nan nan nan nan nan nan nan nan nan nan nan nan nan nan nan nan nan nan nan nan nan nan nan nan nan nan nan nan nan nan nan nan nan nan nan nan nan nan nan nan nan nan nan nan nan nan nan nan nan nan nan nan nan nan nan nan nan nan nan nan nan nan nan nan nan nan nan nan nan nan nan nan nan nan nan nan nan nan
nan nan nan nan nan nan nan nan nan nan nan nan nan nan nan nan nan nan nan nan nan nan nan nan nan nan nan nan nan nan nan nan nan nan nan nan nan nan nan nan nan nan nan nan nan nan nan nan nan nan nan nan nan nan nan nan nan nan nan nan nan nan nan nan nan nan nan nan nan nan nan nan nan nan nan nan nan nan nan nan nan nan nan nan nan
nan nan nan nan nan nan nan nan nan nan nan nan nan nan nan nan nan nan nan nan nan nan nan nan nan nan nan nan nan nan nan nan nan nan nan nan nan nan nan nan nan nan nan nan nan nan nan nan nan nan nan nan nan nan nan nan nan nan nan nan nan nan nan nan nan nan nan nan nan nan nan nan nan nan nan nan nan nan nan nan nan nan nan nan nan
nan nan nan nan nan nan nan nan nan nan nan nan nan nan nan nan nan nan nan nan nan nan nan nan nan nan nan nan nan nan nan nan nan nan nan nan nan nan nan nan nan nan nan nan nan nan nan nan nan nan nan nan nan nan nan nan nan nan nan nan nan nan nan nan nan nan nan nan nan nan nan nan nan nan nan nan nan nan nan nan nan nan nan nan nan
nan nan nan nan nan nan nan nan nan nan nan nan nan nan nan nan nan nan nan nan nan nan nan nan nan nan nan nan nan nan nan nan nan nan nan nan nan nan nan nan nan nan nan nan nan nan nan nan nan nan nan nan nan nan nan nan nan nan nan nan nan nan nan nan nan nan nan nan nan nan nan nan nan nan nan nan nan nan nan nan nan nan nan nan nan
nan nan nan nan nan nan nan nan nan nan nan nan nan nan nan nan nan nan nan nan nan nan nan nan nan nan nan nan nan nan nan nan nan nan nan nan nan nan nan nan nan nan nan nan nan nan nan nan nan nan nan nan nan nan nan nan nan nan nan nan nan nan nan nan nan nan nan nan nan nan nan nan nan nan nan nan nan nan nan nan nan nan nan nan nan
Wind_Direction
339 350 360 5 13 25 22 356 349 352 346 339 351 5 9 6 357 352 337 332 316 319 324 324 330 326 319 320 323 323 323 323 319 315 311 306 307 308 306 305 298 298 298 300 304 306 308 309 311 312 294 291 299 301 299 301 300 300 299 297 296 293 293 294 296 296 289 291 291 288 286 281 281 279 276 274 275 276 276 280 282 278 273 270 267
337 344 351 358 5 2 10 11 354 344 346 348 353 3 7 355 341 338 343 333 330 326 327 328 329 324 323 323 321 320 321 320 315 310 307 304 305 305 303 295 298 305 303 306 308 306 305 308 309 309 301 305 310 307 305 305 305 300 299 299 296 294 293 292 294 291 289 285 287 286 285 287 284 283 282 281 277 275 276 278 285 283 276 270 267
335 338 346 351 356 358 356 353 346 347 350 349 353 356 353 351 342 336 340 353 326 322 320 325 320 319 318 319 322 320 315 309 309 306 304 305 309 312 312 315 318 315 310 308 306 304 303 302 303 302 299 302 305 305 305 304 301 298 295 294 294 293 291 291 290 290 292 291 289 287 285 282 282 282 283 284 281 279 275 277 278 279 276 271 265
332 336 344 353 353 348 344 339 343 345 347 347 346 346 342 332 320 326 326 324 323 322 319 320 320 318 319 321 320 319 314 308 307 303 305 309 309 310 310 308 308 305 299 297 295 294 298 300 308 307 302 299 301 299 298 298 296 294 293 292 291 291 291 285 288 289 288 287 285 285 279 276 280 284 280 274 272 273 276 275 278 280 277 272 269
320 332 336 341 338 336 334 334 338 339 339 336 338 337 326 324 324 323 325 322 320 324 326 324 323 324 323 317 311 311 310 310 307 308 312 312 311 306 304 305 304 303 307 308 309 307 310 310 306 301 296 294 294 293 292 294 292 289 289 290 289 289 289 289 287 287 287 288 283 280 278 276 277 277 273 271 270 272 275 275 276 278 276 271 265
314 321 322 324 327 330 326 327 329 326 328 331 331 322 328 328 329 329 326 327 326 326 323 320 319 314 309 310 309 306 305 306 308 309 307 308 308 307 304 301 301 302 304 308 307 306 304 303 301 295 292 295 295 293 291 290 290 289 290 288 284 280 280 278 277 278 279 275 277 275 274 274 267 268 271 271 271 273 275 276 272 271 270 269 268
309 313 313 316 314 324 318 314 317 322 323 321 322 324 326 326 325 326 326 325 325 321 321 320 319 313 309 307 306 305 306 302 299 298 298 297 297 297 299 301 301 301 301 299 298 297 298 297 299 302 305 305 304 303 302 301 296 299 297 290 281 279 278 274 271 272 274 278 278 277 272 272 281 281 275 276 278 278 274 269 268 266 266 267 265
305 306 307 306 308 307 307 314 316 322 325 326 325 325 328 326 325 325 324 323 321 316 313 313 312 310 309 309 308 310 303 300 299 298 298 297 296 297 296 297 299 301 nan nan nan nan nan nan nan 298 297 297 297 295 292 294 294 293 288 288 284 282 281 280 279 274 272 272 273 274 275 272 268 270 274 276 272 270 273 274 269 265 265 263 262
303 304 302 300 301 306 312 319 327 329 328 327 325 324 324 326 326 326 324 323 319 315 316 314 312 311 309 310 309 305 300 nan nan nan nan nan nan nan nan nan nan nan nan nan nan nan nan nan nan nan 295 291 286 284 284 283 289 291 292 294 296 293 287 283 280 280 278 275 273 272 269 270 270 269 275 276 279 277 272 271 271 271 267 263 259
301 298 300 303 309 315 321 325 325 325 324 325 325 324 326 326 323 320 318 318 317 317 315 311 310 308 309 306 305 301 nan nan nan nan nan nan nan nan nan nan nan nan nan nan nan nan nan nan nan 291 288 286 285 284 280 276 276 280 283 282 281 282 282 280 279 277 273 274 275 275 278 277 279 282 278 273 267 270 268 264 262 259 258 257 255
293 297 302 308 312 318 323 323 321 322 321 321 323 321 320 321 320 319 318 315 315 313 310 308 306 306 305 304 302 nan nan nan nan nan nan nan nan nan nan nan nan nan nan nan nan nan nan nan nan nan nan nan 288 282 282 280 276 274 274 275 278 280 279 279 280 277 276 273 271 271 271 271 274 271 268 268 272 269 268 266 263 260 260 259 254
295 297 304 311 316 319 321 321 322 322 322 317 314 317 322 321 319 318 317 315 312 311 308 307 306 303 301 299 299 nan nan nan nan nan nan nan nan nan nan nan nan nan nan nan nan nan nan nan nan nan nan nan 292 291 286 278 275 276 277 279 279 278 280 280 275 271 269 267 267 269 268 267 266 268 269 271 269 266 265 268 264 260 258 258 257
292 297 305 312 316 322 325 322 317 315 314 317 318 320 320 319 317 316 315 314 312 309 308 306 301 300 298 299 nan nan nan nan nan nan nan nan nan nan nan nan nan nan nan nan nan nan nan nan nan nan nan nan nan nan nan 290 287 282 279 277 278 276 277 276 276 273 268 266 267 267 271 266 266 269 274 275 277 275 272 267 263 262 261 260 258
296 301 305 309 316 317 312 311 313 316 316 316 317 319 318 317 315 316 316 315 312 310 305 303 301 300 299 nan nan nan nan nan nan nan nan nan nan nan nan nan nan nan nan nan nan nan nan nan nan nan nan nan nan nan 295 nan 294 290 284 281 277 269 259 256 260 268 268 267 266 267 267 267 266 266 266 262 262 266 266 263 263 260 257 256 253
295 300 305 310 309 309 313 315 315 315 314 315 317 319 317 316 314 315 315 312 310 308 307 304 nan nan nan nan nan nan nan nan nan nan nan nan nan nan nan nan nan nan nan nan nan nan nan nan nan nan nan nan nan nan nan nan nan nan 285 281 275 260 249 249 252 263 264 267 268 267 262 261 267 271 270 272 281 275 261 256 257 258 256 254 254
299 302 305 306 308 311 312 313 313 314 314 315 317 317 315 313 nan 314 314 313 310 311 nan nan nan nan nan nan nan nan nan nan nan nan nan nan nan nan nan nan nan nan nan nan nan nan nan nan nan nan nan nan nan nan nan nan nan nan nan nan 255 257 255 243 236 273 289 264 260 257 259 268 270 275 277 280 279 278 268 261 259 259 257 255 255
300 303 304 305 307 309 310 311 312 312 314 315 316 315 314 nan nan 317 316 313 nan nan nan nan nan nan nan nan nan nan nan nan nan nan nan nan nan nan nan nan nan nan nan nan nan nan nan nan nan nan nan nan nan nan nan nan nan nan nan nan nan 244 251 263 274 270 266 259 250 251 272 286 286 284 283 282 276 271 268 261 260 261 257 254 252
300 301 303 304 305 307 308 310 310 310 313 315 nan nan nan nan nan nan nan nan nan nan nan nan nan nan nan nan nan nan nan nan nan nan nan nan nan nan nan nan nan nan nan nan nan nan nan nan nan nan nan nan nan nan nan nan nan nan nan nan nan nan 251 nan 255 260 265 276 271 274 267 266 245 258 271 280 288 284 276 269 260 258 258 257 250
296 297 299 301 303 305 307 309 308 309 nan nan nan nan nan nan nan nan nan nan nan nan nan nan nan nan nan nan nan nan nan nan nan nan nan nan nan nan nan nan nan nan nan nan nan nan nan nan nan nan nan nan nan nan nan nan nan nan nan nan nan nan nan nan 264 277 280 280 290 283 275 276 281 281 274 270 272 279 283 273 259 255 250 248 248
293 294 296 298 300 302 305 306 306 nan nan nan nan nan nan nan nan nan nan nan nan nan nan nan nan nan nan nan nan nan nan nan nan nan nan nan nan nan nan nan nan nan nan nan nan nan nan nan nan nan nan nan nan nan nan nan nan nan nan nan nan nan nan nan nan 269 274 274 269 270 273 275 276 275 272 271 274 276 273 267 261 256 251 248 248
292 293 296 297 299 301 302 nan nan nan nan nan nan nan nan nan nan nan nan nan nan nan nan nan nan nan nan nan nan nan nan nan nan nan nan nan nan nan nan nan nan nan nan nan nan nan nan nan nan nan nan nan nan nan nan nan nan nan nan nan nan nan nan nan nan nan 283 284 282 281 282 280 279 274 273 274 276 280 282 273 268 271 264 257 254
290 292 295 297 nan nan nan nan nan nan nan nan nan nan nan nan nan nan nan nan nan nan nan nan nan nan nan nan nan nan nan nan nan nan nan nan nan nan nan nan nan nan nan nan nan nan nan nan nan nan nan nan nan nan nan nan nan nan nan nan nan nan nan nan nan nan 314 nan 290 276 274 271 272 275 275 274 272 274 275 272 269 268 268 269 265
289 291 nan nan nan nan nan nan nan nan nan nan nan nan nan nan nan nan nan nan nan nan nan nan nan nan nan nan nan nan nan nan nan nan nan nan nan nan nan nan nan nan nan nan nan nan nan nan nan nan nan nan nan nan nan nan nan nan nan nan nan nan nan nan nan nan nan 287 276 nan nan nan 269 268 272 275 276 272 271 275 276 274 274 270 266
nan nan nan nan nan nan nan nan nan nan nan nan nan nan nan nan nan nan nan nan nan nan nan nan nan nan nan nan nan nan nan nan nan nan nan nan nan nan nan nan nan nan nan nan nan nan nan nan nan nan nan nan nan nan nan nan nan nan nan nan nan nan nan nan nan nan nan nan nan nan nan nan nan nan nan nan nan nan nan 270 274 276 269 nan nan
nan nan nan nan nan nan nan nan nan nan nan nan nan nan nan nan nan nan nan nan nan nan nan nan nan nan nan nan nan nan nan nan nan nan nan nan nan nan nan nan nan nan nan nan nan nan nan nan nan nan nan nan nan nan nan nan nan nan nan nan nan nan nan nan nan nan nan nan nan nan nan nan nan nan nan nan nan nan nan nan nan 277 279 nan nan
nan nan nan nan nan nan nan nan nan nan nan nan nan nan nan nan nan nan nan nan nan nan nan nan nan nan nan nan nan nan nan nan nan nan nan nan nan nan nan nan nan nan nan nan nan nan nan nan nan nan nan nan nan nan nan nan nan nan nan nan nan nan nan nan nan nan nan nan nan nan nan nan nan nan nan nan nan nan nan nan nan nan nan nan nan
nan nan nan nan nan nan nan nan nan nan nan nan nan nan nan nan nan nan nan nan nan nan nan nan nan nan nan nan nan nan nan nan nan nan nan nan nan nan nan nan nan nan nan nan nan nan nan nan nan nan nan nan nan nan nan nan nan nan nan nan nan nan nan nan nan nan nan nan nan nan nan nan nan nan nan nan nan nan nan nan nan nan nan nan nan
nan nan nan nan nan nan nan nan nan nan nan nan nan nan nan nan nan nan nan nan nan nan nan nan nan nan nan nan nan nan nan nan nan nan nan nan nan nan nan nan nan nan nan nan nan nan nan nan nan nan nan nan nan nan nan nan nan nan nan nan nan nan nan nan nan nan nan nan nan nan nan nan nan nan nan nan nan nan nan nan nan nan nan nan nan
nan nan nan nan nan nan nan nan nan nan nan nan nan nan nan nan nan nan nan nan nan nan nan nan nan nan nan nan nan nan nan nan nan nan nan nan nan nan nan nan nan nan nan nan nan nan nan nan nan nan nan nan nan nan nan nan nan nan nan nan nan nan nan nan nan nan nan nan nan nan nan nan nan nan nan nan nan nan nan nan nan nan nan nan nan
nan nan nan nan nan nan nan nan nan nan nan nan nan nan nan nan nan nan nan nan nan nan nan nan nan nan nan nan nan nan nan nan nan nan nan nan nan nan nan nan nan nan nan nan 57 52 nan nan nan nan nan nan nan nan nan nan nan nan nan nan nan nan nan nan nan nan nan 60 61 nan nan nan nan nan nan nan nan nan nan nan nan nan nan nan nan
nan nan nan nan nan nan nan nan nan nan nan nan nan nan nan nan nan nan nan nan nan nan nan nan nan nan nan nan nan nan nan nan nan nan nan nan nan nan nan nan nan nan nan nan nan nan nan nan nan nan nan nan nan nan nan nan nan nan nan nan nan nan nan nan nan nan nan nan nan nan nan nan nan nan nan nan nan nan nan nan nan nan nan nan nan
nan nan nan nan nan nan nan nan nan nan nan nan nan nan nan nan nan nan nan nan nan nan nan nan nan nan nan nan nan nan nan nan nan nan nan nan nan nan nan nan nan nan nan nan nan nan nan nan nan nan nan nan nan nan nan nan nan nan nan nan nan nan nan nan nan nan nan nan nan nan nan nan nan nan nan nan nan nan nan nan nan nan nan nan nan
nan nan nan nan nan nan nan nan nan nan nan nan nan nan nan nan nan nan nan nan nan nan nan nan nan nan nan nan nan nan nan nan nan nan nan nan nan nan nan nan nan nan nan nan nan nan nan nan nan nan nan nan nan nan nan nan nan nan nan nan nan nan nan nan nan nan nan nan nan nan nan nan nan nan nan nan nan nan nan nan nan nan nan nan nan
nan nan nan nan nan nan nan nan nan nan nan nan nan nan nan nan nan nan nan nan nan nan nan nan nan nan nan nan nan nan nan nan nan nan nan nan nan nan nan nan nan nan nan nan nan nan nan nan nan nan nan nan nan nan nan nan nan nan nan nan nan nan nan nan nan nan nan nan nan nan nan nan nan nan nan nan nan nan nan nan nan nan nan nan nan
nan nan nan nan nan nan nan nan nan nan nan nan nan nan nan nan nan nan nan nan nan nan nan nan nan nan nan nan nan nan nan nan nan nan nan nan nan nan nan nan nan nan nan nan nan nan nan nan nan nan nan nan nan nan nan nan nan nan nan nan nan nan nan nan nan nan nan nan nan nan nan nan nan nan nan nan nan nan nan nan nan nan nan nan nan
nan nan nan nan nan nan nan nan nan nan nan nan nan nan nan nan nan nan nan nan nan nan nan nan nan nan nan nan nan nan nan nan nan nan nan nan nan nan nan nan nan nan nan nan nan nan nan nan nan nan nan nan nan nan nan nan nan nan nan nan nan nan nan nan nan nan nan nan nan nan nan nan nan nan nan nan nan nan nan nan nan nan nan nan nan
nan nan nan nan nan nan nan nan nan nan nan nan nan nan nan nan nan nan nan nan nan nan nan nan nan nan nan nan nan nan nan nan nan nan nan nan nan nan nan nan nan nan nan nan nan nan nan nan nan nan nan nan nan nan nan nan nan nan nan nan nan nan nan nan nan nan nan nan nan nan nan nan nan nan nan nan nan nan nan nan nan nan nan nan nan
nan nan nan nan nan nan nan nan nan nan nan nan nan nan nan nan nan nan nan nan nan nan nan nan nan nan nan nan nan nan nan nan nan nan nan nan nan nan nan nan nan nan nan nan nan nan nan nan nan nan nan nan nan nan nan nan nan nan nan nan nan nan nan nan nan nan nan nan nan nan nan nan nan nan nan nan nan nan nan nan nan nan nan nan nan
nan nan nan nan nan nan nan nan nan nan nan nan nan nan nan nan nan nan nan nan nan nan nan nan nan nan nan nan nan nan nan nan nan nan nan nan nan nan nan nan nan nan nan nan nan nan nan nan nan nan nan nan nan nan nan nan nan nan nan nan nan nan nan nan nan nan nan nan nan nan nan nan nan nan nan nan nan nan nan nan nan nan nan nan nan
nan nan nan nan nan nan nan nan nan nan nan nan nan nan nan nan nan nan nan nan nan nan nan nan nan nan nan nan nan nan nan nan nan nan nan nan nan nan nan nan nan nan nan nan nan nan nan nan nan nan nan nan nan nan nan nan nan nan nan nan nan nan nan nan nan nan nan nan nan nan nan nan nan nan nan nan nan nan nan nan nan nan nan nan nan
nan nan nan nan nan nan nan nan nan nan nan nan nan nan nan nan nan nan nan nan nan nan nan nan nan nan nan nan nan nan nan nan nan nan nan nan nan nan nan nan nan nan nan nan nan nan nan nan nan nan nan nan nan nan nan nan nan nan nan nan nan nan nan nan nan nan nan nan nan nan nan nan nan nan nan nan nan nan nan nan nan nan nan nan nan
nan nan nan nan nan nan nan nan nan nan nan nan nan nan nan nan nan nan nan nan nan nan nan nan nan nan nan nan nan nan nan nan nan nan nan nan nan nan nan nan nan nan nan nan nan nan nan nan nan nan nan nan nan nan nan nan nan nan nan nan nan nan nan nan nan nan nan nan nan nan nan nan nan nan nan nan nan nan nan nan nan nan nan nan nan
nan nan nan nan nan nan nan nan nan nan nan nan nan nan nan nan nan nan nan nan nan nan nan nan nan nan nan nan nan nan nan nan nan nan nan nan nan nan nan nan nan nan nan nan nan nan nan nan nan nan nan nan nan nan nan nan nan nan nan nan nan nan nan nan nan nan nan nan nan nan nan nan nan nan nan nan nan nan nan nan nan nan nan nan nan
nan nan nan nan nan nan nan nan nan nan nan nan nan nan nan nan nan nan nan nan nan nan nan nan nan nan nan nan nan nan nan nan nan nan nan nan nan nan nan nan nan nan nan nan nan nan nan nan nan nan nan nan nan nan nan nan nan nan nan nan nan nan nan nan nan nan nan nan nan nan nan nan nan nan nan nan nan nan nan nan nan nan nan nan nan
nan nan nan nan nan nan nan nan nan nan nan nan nan nan nan nan nan nan nan nan nan nan nan nan nan nan nan nan nan nan nan nan nan nan nan nan nan nan nan nan nan nan nan nan nan nan nan nan nan nan nan nan nan nan nan nan nan nan nan nan nan nan nan nan nan nan nan nan nan nan nan nan nan nan nan nan nan nan nan nan nan nan nan nan nan
nan nan nan nan nan nan nan nan nan nan nan nan nan nan nan nan nan nan nan nan nan nan nan nan nan nan nan nan nan nan nan nan nan nan nan nan nan nan nan nan nan nan nan nan nan nan nan nan nan nan nan nan nan nan nan nan nan nan nan nan nan nan nan nan nan nan nan nan nan nan nan nan nan nan nan nan nan nan nan nan nan nan nan nan nan
nan nan nan nan nan nan nan nan nan nan nan nan nan nan nan nan nan nan nan nan nan nan nan nan nan nan nan nan nan nan nan nan nan nan nan nan nan nan nan nan nan nan nan nan nan nan nan nan nan nan nan nan nan nan nan nan nan nan nan nan nan nan nan nan nan nan nan nan nan nan nan nan nan nan nan nan nan nan nan nan nan nan nan nan nan
nan nan nan nan nan nan nan nan nan nan nan nan nan nan nan nan nan nan nan nan nan nan nan nan nan nan nan nan nan nan nan nan nan nan nan nan nan nan nan nan nan nan nan nan nan nan nan nan nan nan nan nan nan nan nan nan nan nan nan nan nan nan nan nan nan nan nan nan nan nan nan nan nan nan nan nan nan nan nan nan nan nan nan nan nan
nan nan nan nan nan nan nan nan nan nan nan nan nan nan nan nan nan nan nan nan nan nan nan nan nan nan nan nan nan nan nan nan nan nan nan nan nan nan nan nan nan nan nan nan nan nan nan nan nan nan nan nan nan nan nan nan nan nan nan nan nan nan nan nan nan nan nan nan nan nan nan nan nan nan nan nan nan nan nan nan nan nan nan nan nan
nan nan nan nan nan nan nan nan nan nan nan nan nan nan nan nan nan nan nan nan nan nan nan nan nan nan nan nan nan nan nan nan nan nan nan nan nan nan nan nan nan nan nan nan nan nan nan nan nan nan nan nan nan nan nan nan nan nan nan nan nan nan nan nan nan nan nan nan nan nan nan nan nan nan nan nan nan nan nan nan nan nan nan nan nan
nan nan nan nan nan nan nan nan nan nan nan nan nan nan nan nan nan nan nan nan nan nan nan nan nan nan nan nan nan nan nan nan nan nan nan nan nan nan nan nan nan nan nan nan nan nan nan nan nan nan nan nan nan nan nan nan nan nan nan nan nan nan nan nan nan nan nan nan nan nan nan nan nan nan nan nan nan nan nan nan nan nan nan nan nan